TimeCDT,TemperatureF,Dew PointF,Humidity,Sea Level PressureIn,VisibilityMPH,Wind Direction,Wind SpeedMPH,Gust SpeedMPH,PrecipitationIn,Events,Conditions,WindDirDegrees,DateUTC
12:53 AM,61.0,57.9,90,29.86,10.0,SSW,5.8,-,N/A,,Scattered Clouds,210,2013-05-17 05:53:00
1:53 AM,60.1,57.0,90,29.86,10.0,South,5.8,-,N/A,,Scattered Clouds,190,2013-05-17 06:53:00
2:53 AM,60.1,57.9,93,29.85,10.0,SE,6.9,-,N/A,,Mostly Cloudy,130,2013-05-17 07:53:00
3:53 AM,60.1,57.0,90,29.85,10.0,SE,3.5,-,N/A,,Mostly Cloudy,140,2013-05-17 08:53:00
4:53 AM,59.0,57.0,93,29.86,10.0,South,6.9,-,N/A,,Mostly Cloudy,190,2013-05-17 09:53:00
5:53 AM,59.0,57.0,93,29.86,10.0,SSE,4.6,-,N/A,,Scattered Clouds,160,2013-05-17 10:53:00
6:53 AM,59.0,57.2,94,29.90,8.0,South,4.6,-,N/A,,Scattered Clouds,180,2013-05-17 11:53:00
7:24 AM,62.6,59.0,88,29.92,10.0,SE,4.6,-,N/A,,Mostly Cloudy,140,2013-05-17 12:24:00
7:53 AM,63.0,60.1,90,29.91,8.0,South,4.6,-,N/A,,Overcast,170,2013-05-17 12:53:00
8:09 AM,62.6,60.8,94,29.94,7.0,South,3.5,-,N/A,,Overcast,180,2013-05-17 13:09:00
8:53 AM,64.0,61.0,90,29.93,7.0,South,3.5,-,N/A,,Overcast,170,2013-05-17 13:53:00
9:36 AM,66.2,60.8,83,29.95,9.0,Calm,Calm,-,N/A,,Overcast,0,2013-05-17 14:36:00
9:53 AM,66.0,61.0,84,29.93,8.0,South,4.6,-,N/A,,Overcast,190,2013-05-17 14:53:00
10:29 AM,66.2,60.8,83,29.94,9.0,South,4.6,-,N/A,,Overcast,180,2013-05-17 15:29:00
10:53 AM,66.9,60.1,79,29.93,9.0,Calm,Calm,-,N/A,,Overcast,0,2013-05-17 15:53:00
11:37 AM,69.8,60.8,73,29.95,9.0,Calm,Calm,-,N/A,,Overcast,0,2013-05-17 16:37:00
11:53 AM,69.1,60.1,73,29.93,10.0,Calm,Calm,-,N/A,,Overcast,0,2013-05-17 16:53:00
12:36 PM,69.8,60.8,73,29.94,10.0,SSE,5.8,-,N/A,,Overcast,150,2013-05-17 17:36:00
12:53 PM,70.0,61.0,73,29.92,7.0,SSE,4.6,-,N/A,,Mostly Cloudy,160,2013-05-17 17:53:00
1:53 PM,73.4,59.0,61,29.92,10.0,ESE,4.6,-,N/A,,Overcast,110,2013-05-17 18:53:00
2:53 PM,75.0,57.9,55,29.90,9.0,Calm,Calm,-,N/A,,Mostly Cloudy,0,2013-05-17 19:53:00
3:53 PM,75.9,60.1,58,29.88,10.0,SSE,5.8,-,N/A,,Mostly Cloudy,150,2013-05-17 20:53:00
4:53 PM,75.9,60.1,58,29.87,10.0,SSE,5.8,-,N/A,,Scattered Clouds,150,2013-05-17 21:53:00
5:53 PM,75.9,59.0,56,29.87,10.0,SE,6.9,-,N/A,,Mostly Cloudy,130,2013-05-17 22:53:00
6:53 PM,75.0,59.0,57,29.87,10.0,ESE,6.9,-,N/A,,Mostly Cloudy,120,2013-05-17 23:53:00
7:53 PM,72.0,60.1,66,29.87,10.0,SE,4.6,-,N/A,,Partly Cloudy,140,2013-05-18 00:53:00
8:53 PM,68.0,59.0,73,29.88,10.0,South,3.5,-,N/A,,Partly Cloudy,170,2013-05-18 01:53:00
9:53 PM,69.1,57.9,68,29.89,10.0,ESE,4.6,-,N/A,,Clear,120,2013-05-18 02:53:00
10:53 PM,69.1,57.9,68,29.91,10.0,East,4.6,-,N/A,,Partly Cloudy,100,2013-05-18 03:53:00
11:53 PM,64.9,57.9,78,29.91,10.0,ESE,6.9,-,N/A,,Clear,120,2013-05-18 04:53:00